Weather Roundup
Issued by NWS Chicago, IL

Home | Current Version | Previous Version | Graphics & Text | Print | Product List | Glossary On
Versions: 1 2 3 4 5 6 7 8 9 10 11 12 13 14 15 16 17 18 19 20 21 22 23 24 25 26 27 28 29 30 31 32 33 34 35 36 37 38 39 40 41 42 43 44 45 46 47 48 49 50
000
NZUS59 KLOT 232008
HRRLOT

CHICAGO AREA WEATHER ROUNDUP
NATIONAL WEATHER SERVICE CHICAGO/ROMEOVILLE IL
200 PM CST FRI FEB 23 2018

NOTE: "FAIR" INDICATES FEW OR NO CLOUDS BELOW 12,000 FEET WITH NO
SIGNIFICANT WEATHER AND/OR OBSTRUCTIONS TO VISIBILITY.

* THESE STATIONS ARE NOT UNDER NWS QUALITY CONTROL. THEY ALSO MAY NOT
  REPORT WEATHER SUCH AS PRECIPITATION OR FOG.

ILZ005-006-012>014-019>023-232100-
NORTHEAST ILLINOIS

CITY           SKY/WX    TMP DP  RH WIND       PRES   REMARKS
OHARE          CLOUDY    39  35  86 W10       30.17S
MIDWAY         CLOUDY    41  37  86 W13       30.18S
AURORA         CLOUDY    37  35  92 W18       30.20R
LANSING*       CLOUDY    41  38  92 W15       30.20S
JOLIET*        CLOUDY    40  37  89 W10G17    30.21S
WAUKEGAN       CLOUDY    38  35  89 VRB5G20   30.14S
DUPAGE AIRPORT CLOUDY    37  35  92 W14G23    30.18S
WHEELING       CLOUDY    40  36  86 W10       30.18R
KANKAKEE*      CLOUDY    40  38  93 W15       30.22S
MORRIS*        CLOUDY    38  35  90 W15       30.21S
LEWIS AIRPORT* CLOUDY    38  36  91 W12       30.21S
NORTHERLY ISL    N/A     40  34  79 S13         N/A
$$

WIZ051-052-058>065-066-070>072-232100-
SOUTHEAST WISCONSIN

CITY           SKY/WX    TMP DP  RH WIND       PRES   REMARKS
MILWAUKEE      CLOUDY    39  34  82 W14       30.13R
KENOSHA*       CLOUDY    38  33  82 W13G23    30.14R
RACINE*        CLOUDY    39  33  79 W13G23    30.15R
BURLINGTON     CLOUDY    37  32  81 W12G17    30.14S
WAUKESHA       CLOUDY    36  32  87 W12G18    30.13S
WEST BEND      CLOUDY    36  34  93 W13       30.10R
$$

INZ001>003-010>013-019-020-232100-
NORTHWEST INDIANA

CITY           SKY/WX    TMP DP  RH WIND       PRES   REMARKS
GARY*          CLOUDY    43  37  81 W22       30.20
MICHIGAN CITY* NOT AVBL
RENSSELAER*    NOT AVBL
VALPARAISO     CLOUDY    44  40  85 W13       30.19S
$$

LMZ740>746-232100-
SOUTHERN LAKE MICHIGAN

STATION/POSITION TIME  SKY/WX   TEMP WIND        PRES    VSBY
                                AIR  DIR/SP/G
                 (UTC)          (F)  (DEG/KT/KT) (MB)    (MI)
HARRISON CRIB    1940            40  260/ 13/ 16   N/A
BURNHAM HARBOR   2000            40  260/ 12/ 14   N/A
CALUMET HARBOR   1942            40  240/ 10/ 18 1021.6R
BURNS HARBOR     2001            39  260/ 12/ 19 1022.7
MICHIGAN CITY    1940            37  220/  9/  9   N/A
$$

ABBREVIATIONS USED IN REMARKS
   TC - TEMPERATURE IN CELSIUS
  WCI - WIND CHILL INDEX
   HX - HEAT INDEX
  VSB - VISIBILITY
$$



USA.gov is the U.S. government's official web portal to all federal, state and local government web resources and services.